Weather History for Ithaca, NY

Change the Weather History Date:

Tuesday, April 9, 2013

  Actual Average Record
Temperature  
Mean Temperature 54 °F -  
Max Temperature 64 °F 48 °F 82 °F (1991)
Min Temperature 45 °F 29 °F 15 °F (1972)
Degree Days  
Heating Degree Days 11    
Growing Degree Days 4 (Base 50)    
Moisture  
Dew Point 42 °F    
Average Humidity 63    
Maximum Humidity 93    
Minimum Humidity 38    
Precipitation  
Precipitation 0.11 in - - ()
Sea Level Pressure  
Sea Level Pressure 29.98 in    
Wind  
Wind Speed 9 mph (NW)    
Max Wind Speed 23 mph    
Max Gust Speed 29 mph    
Visibility 10 miles    
Events Rain , Thunderstorm    
Averages and records for this station are not official NWS values.
T = Trace of Precipitation, MM = Missing Value Source: NWS Daily Summary

Daily Weather History Graph

Daily Weather History Graph

Search for Another Location

Airport:

Trip Planner

Search our weather history database for the weather conditions in past years. The results will help you decide how hot, cold, wet, or windy it might be!

Date:

Astronomy

Apr. 09, 2013 Rise Set
Actual Time 6:34 AM EDT 7:41 PM EDT
Civil Twilight 6:05 AM EDT 8:10 PM EDT
Nautical Twilight 5:30 AM EDT 8:44 PM EDT
Astronomical Twilight 4:54 AM EDT 9:20 PM EDT
Moon 5:56 AM EDT (4/9) 7:14 PM EDT (4/9)
Length of Visible Light 14h 04m
Length of Day
13h 06m
Waning Crescent, 1% of the Moon is Illuminated
Apr 9
Waning Crescent
Apr 10
New
Apr 18
First Quarter
Apr 25
Full
May 2
Last Quarter

Hourly Weather History & Observations

Time (EDT) Temp. Windchill Dew Point Humidity Pressure Visibility Wind Dir Wind Speed Gust Speed Precip Events Conditions
12:56 AM 63.0 °F - 45.0 °F 52% 29.85 in 10.0 mi South 9.2 mph - N/A   Mostly Cloudy
1:56 AM 61.9 °F - 45.0 °F 54% 29.85 in 10.0 mi SSW 6.9 mph - N/A   Clear
2:56 AM 61.9 °F - 46.9 °F 58% 29.85 in 10.0 mi SSW 8.1 mph - N/A   Clear
3:56 AM 63.0 °F - 46.9 °F 56% 29.85 in 10.0 mi WSW 10.4 mph - N/A   Overcast
4:56 AM 59.0 °F - 47.8 °F 66% 29.88 in 10.0 mi North 12.7 mph - N/A   Mostly Cloudy
5:56 AM 50.9 °F - 45.0 °F 80% 29.93 in 10.0 mi North 11.5 mph - N/A   Clear
6:15 AM 51.8 °F - 44.6 °F 76% 29.94 in 10.0 mi NW 12.7 mph - N/A   Mostly Cloudy
6:56 AM 50.9 °F - 45.0 °F 80% 29.99 in 10.0 mi North 10.4 mph - N/A   Mostly Cloudy
7:56 AM 50.0 °F - 41.0 °F 71% 30.04 in 10.0 mi NW 20.7 mph 25.3 mph N/A   Mostly Cloudy
8:56 AM 46.9 °F - 39.9 °F 77% 30.07 in 10.0 mi NW 23.0 mph 28.8 mph N/A   Overcast
9:56 AM 45.9 °F 39.7 °F 41.0 °F 83% 30.09 in 10.0 mi NW 13.8 mph - N/A   Overcast
10:56 AM 47.8 °F - 39.9 °F 74% 30.11 in 10.0 mi NW 12.7 mph - N/A   Overcast
11:56 AM 50.9 °F - 39.9 °F 66% 30.11 in 10.0 mi WNW 11.5 mph - N/A   Mostly Cloudy
12:41 PM 55.4 °F - 39.2 °F 54% 30.09 in 10.0 mi WNW 10.4 mph - N/A   Scattered Clouds
12:56 PM 54.9 °F - 39.9 °F 57% 30.09 in 10.0 mi NW 8.1 mph 16.1 mph N/A   Scattered Clouds
1:56 PM 57.9 °F - 39.9 °F 51% 30.06 in 10.0 mi Calm Calm - N/A   Clear
2:56 PM 61.0 °F - 38.8 °F 44% 30.04 in 10.0 mi WNW 3.5 mph - N/A   Clear
3:56 PM 61.9 °F - 37.9 °F 41% 30.01 in 10.0 mi Calm Calm - N/A   Clear
4:56 PM 63.9 °F - 37.9 °F 38% 29.99 in 10.0 mi Calm Calm - N/A   Partly Cloudy
5:56 PM 63.9 °F - 37.9 °F 38% 29.99 in 10.0 mi Calm Calm - N/A   Scattered Clouds
6:56 PM 61.9 °F - 39.9 °F 44% 29.97 in 10.0 mi Variable 3.5 mph - N/A   Overcast
7:56 PM 55.9 °F - 41.0 °F 57% 29.99 in 10.0 mi NNW 6.9 mph - N/A   Overcast
8:56 PM 54.0 °F - 43.0 °F 66% 29.96 in 10.0 mi ENE 3.5 mph - 0.00 in   Mostly Cloudy
9:56 PM 55.9 °F - 41.9 °F 59% 29.94 in 10.0 mi East 9.2 mph - N/A   Mostly Cloudy
10:56 PM 54.0 °F - 43.0 °F 66% 29.88 in 10.0 mi East 10.4 mph - 0.00 in Rain Light Rain
11:27 PM 50.0 °F - 46.4 °F 87% 29.92 in 10.0 mi North 8.1 mph 19.6 mph 0.01 in Rain , Thunderstorm Rain
11:56 PM 48.9 °F - 46.9 °F 93% 29.99 in 5.0 mi NNW 5.8 mph - 0.11 in Rain Rain